Regional Weather Roundup
Issued by NWS Albany, NY

Home | Current Version | Previous Version | Text Only | Print | Product List | Glossary On
Versions: 1 2 3 4 5 6 7 8 9 10 11 12 13 14 15 16 17 18 19 20 21 22 23 24 25 26 27 28 29 30 31 32 33 34 35 36 37 38 39 40 41 42 43 44 45 46 47 48
000
ASUS41 KALY 041210
RWRALY

NEW YORK STATE HOURLY WEATHER ROUNDUP
NATIONAL WEATHER SERVICE ALBANY NY
800 AM EDT FRI SEP 04 2015

NOTE: "FAIR" INDICATES FEW OR NO CLOUDS BELOW 12,000 FEET WITH NO
SIGNIFICANT WEATHER AND/OR NO OBSTRUCTIONS TO VISIBILITY.

NYZ032-033-038>043-046>054-057>066-NYZ062>081-041300-
EAST


CITY           SKY/WX    TMP DP  RH WIND       PRES   REMARKS
ALBANY         MOSUNNY   67  54  63 N9        30.10R
GLENS FALLS    SUNNY     65  55  70 N8        30.11R
POUGHKEEPSIE   SUNNY     71  61  70 N8        30.06R
MONTGOMERY     SUNNY     71  62  73 NE6       30.06R
WHITE PLAINS   MOSUNNY   73  66  78 NE6       30.04R
ISLIP          PTSUNNY   76  70  82 NE9       30.01R HAZE
NEW YORK CITY  MOSUNNY   76  67  73 NE8       30.01R
CENTRAL PARK   SUNNY     78  66  66 NE6       30.05R
$$

NYZ005>009-017-018-044>046-055-056-041300-
CENTRAL


CITY           SKY/WX    TMP DP  RH WIND       PRES   REMARKS
FULTON         SUNNY     67  61  81 VRB3      30.09R
SYRACUSE       MOSUNNY   64  64 100 E6        30.08R
ROME           SUNNY     63  60  90 E5        30.11R
ELMIRA         CLOUDY    70  69  97 CALM      30.08R FOG
BINGHAMTON     MOSUNNY   65  63  93 E6        30.11R
MONTICELLO     SUNNY     64  64 100 E5        30.11R
$$

NYZ026>034-041>043-041300-
NORTH


CITY           SKY/WX    TMP DP  RH WIND       PRES   REMARKS
WATERTOWN      SUNNY     60  58  92 E5        30.11R
FORT DRUM      NOT AVBL
MASSENA        SUNNY     57  51  80 NE5       30.16R
SARANAC LAKE   SUNNY     48  46  93 NE3       30.15R
PLATTSBURGH    SUNNY     56  49  77 SW5       30.14R
$$

NYZ001>004-010>016-019>021-041300-
WEST


CITY           SKY/WX    TMP DP  RH WIND       PRES   REMARKS
NIAGARA FALLS  PTSUNNY   70  67  90 E10       30.06R FOG
BUFFALO        PTSUNNY   69  66  90 NE8       30.07R FOG
DUNKIRK        MOSUNNY   71  69  93 CALM      30.05R FOG
JAMESTOWN      CLOUDY    66  64  94 CALM      30.10R VSB<1/4
WELLSVILLE     FOG       67  65  93 VRB3      30.14R VSB 1/4
ROCHESTER      SUNNY     69  65  86 CALM      30.09R
PENN YAN       FOG       68  67  96 CALM      30.10R VSB 1/4
$$

             KEY
       WCI = WIND CHILL INDEX
       VSB = VISIBILITY
       HX  = HEAT INDEX
$$



USA.gov is the U.S. government's official web portal to all federal, state and local government web resources and services.